Year,Month,Day,Hour,Minute,Value (Times are PST for temperature in C)
2016,07,09,00,00,15.40
2016,07,09,00,01,15.40
2016,07,09,00,02,15.40
2016,07,09,00,03,15.30
2016,07,09,00,04,15.30
2016,07,09,00,05,15.30
2016,07,09,00,06,15.30
2016,07,09,00,07,15.30
2016,07,09,00,08,15.30
2016,07,09,00,09,15.30
2016,07,09,00,10,15.30
2016,07,09,00,11,15.30
2016,07,09,00,12,15.30
2016,07,09,00,13,15.30
2016,07,09,00,14,15.30
2016,07,09,00,15,15.30
2016,07,09,00,16,15.30
2016,07,09,00,17,15.30
2016,07,09,00,18,15.30
2016,07,09,00,19,15.20
2016,07,09,00,20,15.20
2016,07,09,00,21,15.20
2016,07,09,00,22,15.20
2016,07,09,00,23,15.20
2016,07,09,00,24,15.20
2016,07,09,00,25,15.20
2016,07,09,00,26,15.30
2016,07,09,00,27,15.30
2016,07,09,00,28,15.30
2016,07,09,00,29,15.30
2016,07,09,00,30,15.30
2016,07,09,00,31,15.30
2016,07,09,00,32,15.30
2016,07,09,00,33,15.30
2016,07,09,00,34,15.30
2016,07,09,00,35,15.30
2016,07,09,00,36,15.30
2016,07,09,00,37,15.30
2016,07,09,00,38,15.30
2016,07,09,00,39,15.30
2016,07,09,00,40,15.30
2016,07,09,00,41,15.30
2016,07,09,00,42,15.30
2016,07,09,00,43,15.30
2016,07,09,00,44,15.30
2016,07,09,00,45,15.30
2016,07,09,00,46,15.20
2016,07,09,00,47,15.20
2016,07,09,00,48,15.20
2016,07,09,00,49,15.20
2016,07,09,00,50,15.20
2016,07,09,00,51,15.20
2016,07,09,00,52,15.20
2016,07,09,00,53,15.20
2016,07,09,00,54,15.20
2016,07,09,00,55,15.20
2016,07,09,00,56,15.10
2016,07,09,00,57,15.10
2016,07,09,00,58,15.10
2016,07,09,00,59,15.20
2016,07,09,01,00,15.20
2016,07,09,01,01,15.20
2016,07,09,01,02,15.20
2016,07,09,01,03,15.20
2016,07,09,01,04,15.20
2016,07,09,01,05,15.20
2016,07,09,01,06,15.20
2016,07,09,01,07,15.20
2016,07,09,01,08,15.20
2016,07,09,01,09,15.20
2016,07,09,01,10,15.20
2016,07,09,01,11,15.20
2016,07,09,01,12,15.30
2016,07,09,01,13,15.30
2016,07,09,01,14,15.30
2016,07,09,01,15,15.30
2016,07,09,01,16,15.30
2016,07,09,01,17,15.30
2016,07,09,01,18,15.30
2016,07,09,01,19,15.40
2016,07,09,01,20,15.40
2016,07,09,01,21,15.50
2016,07,09,01,22,15.50
2016,07,09,01,23,15.60
2016,07,09,01,24,15.60
2016,07,09,01,25,15.60
2016,07,09,01,26,15.60
2016,07,09,01,27,15.60
2016,07,09,01,28,15.60
2016,07,09,01,29,15.60
2016,07,09,01,30,15.60
2016,07,09,01,31,15.50
2016,07,09,01,32,15.50
2016,07,09,01,33,15.50
2016,07,09,01,34,15.50
2016,07,09,01,35,15.50
2016,07,09,01,36,15.50
2016,07,09,01,37,15.50
2016,07,09,01,38,15.50
2016,07,09,01,39,15.40
2016,07,09,01,40,15.30
2016,07,09,01,41,15.30
2016,07,09,01,42,15.30
2016,07,09,01,43,15.30
2016,07,09,01,44,15.30
2016,07,09,01,45,15.30
2016,07,09,01,46,15.30
2016,07,09,01,47,15.30
2016,07,09,01,48,15.20
2016,07,09,01,49,15.20
2016,07,09,01,50,15.20
2016,07,09,01,51,15.20
2016,07,09,01,52,15.20
2016,07,09,01,53,15.20
2016,07,09,01,54,15.30
2016,07,09,01,55,15.30
2016,07,09,01,56,15.30
2016,07,09,01,57,15.30
2016,07,09,01,58,15.30
2016,07,09,01,59,15.30
2016,07,09,02,00,15.20
2016,07,09,02,01,15.20
2016,07,09,02,02,15.20
2016,07,09,02,03,15.20
2016,07,09,02,04,15.20
2016,07,09,02,05,15.20
2016,07,09,02,06,15.20
2016,07,09,02,07,15.20
2016,07,09,02,08,15.20
2016,07,09,02,09,15.20
2016,07,09,02,10,15.20
2016,07,09,02,11,15.20
2016,07,09,02,12,15.20
2016,07,09,02,13,15.20
2016,07,09,02,14,15.30
2016,07,09,02,15,15.20
2016,07,09,02,16,15.20
2016,07,09,02,17,15.30
2016,07,09,02,18,15.30
2016,07,09,02,19,15.30
2016,07,09,02,20,15.30
2016,07,09,02,21,15.30
2016,07,09,02,22,15.30
2016,07,09,02,23,15.30
2016,07,09,02,24,15.30
2016,07,09,02,25,15.30
2016,07,09,02,26,15.30
2016,07,09,02,27,15.30
2016,07,09,02,28,15.30
2016,07,09,02,29,15.30
2016,07,09,02,30,15.20
2016,07,09,02,31,15.20
2016,07,09,02,32,15.20
2016,07,09,02,33,15.10
2016,07,09,02,34,15.10
2016,07,09,02,35,15.00
2016,07,09,02,36,15.00
2016,07,09,02,37,15.00
2016,07,09,02,38,14.90
2016,07,09,02,39,14.90
2016,07,09,02,40,14.90
2016,07,09,02,41,14.90
2016,07,09,02,42,14.90
2016,07,09,02,43,14.80
2016,07,09,02,44,14.80
2016,07,09,02,45,14.80
2016,07,09,02,46,14.80
2016,07,09,02,47,14.80
2016,07,09,02,48,14.80
2016,07,09,02,49,14.70
2016,07,09,02,50,14.70
2016,07,09,02,51,14.70
2016,07,09,02,52,14.70
2016,07,09,02,53,14.70
2016,07,09,02,54,14.70
2016,07,09,02,55,14.70
2016,07,09,02,56,14.70
2016,07,09,02,57,14.70
2016,07,09,02,58,14.70
2016,07,09,02,59,14.70
2016,07,09,03,00,14.60
2016,07,09,03,01,14.60
2016,07,09,03,02,14.60
2016,07,09,03,03,14.60
2016,07,09,03,04,14.60
2016,07,09,03,05,14.50
2016,07,09,03,06,14.50
2016,07,09,03,07,14.50
2016,07,09,03,08,14.50
2016,07,09,03,09,14.50
2016,07,09,03,10,14.50
2016,07,09,03,11,14.50
2016,07,09,03,12,14.40
2016,07,09,03,13,14.40
2016,07,09,03,14,14.40
2016,07,09,03,15,14.40
2016,07,09,03,16,14.40
2016,07,09,03,17,14.30
2016,07,09,03,18,14.20
2016,07,09,03,19,14.20
2016,07,09,03,20,14.20
2016,07,09,03,21,14.20
2016,07,09,03,22,14.20
2016,07,09,03,23,14.20
2016,07,09,03,24,14.10
2016,07,09,03,25,14.10
2016,07,09,03,26,14.10
2016,07,09,03,27,14.10
2016,07,09,03,28,14.00
2016,07,09,03,29,14.00
2016,07,09,03,30,14.10
2016,07,09,03,31,14.10
2016,07,09,03,32,14.10
2016,07,09,03,33,14.20
2016,07,09,03,34,14.10
2016,07,09,03,35,14.10
2016,07,09,03,36,14.10
2016,07,09,03,37,14.10
2016,07,09,03,38,14.10
2016,07,09,03,39,14.10
2016,07,09,03,40,14.10
2016,07,09,03,41,14.10
2016,07,09,03,42,14.10
2016,07,09,03,43,14.10
2016,07,09,03,44,14.10
2016,07,09,03,45,14.10
2016,07,09,03,46,14.20
2016,07,09,03,47,14.20
2016,07,09,03,48,14.20
2016,07,09,03,49,14.20
2016,07,09,03,50,14.20
2016,07,09,03,51,14.20
2016,07,09,03,52,14.20
2016,07,09,03,53,14.20
2016,07,09,03,54,14.20
2016,07,09,03,55,14.20
2016,07,09,03,56,14.20
2016,07,09,03,57,14.20
2016,07,09,03,58,14.20
2016,07,09,03,59,14.20
2016,07,09,04,00,14.20
2016,07,09,04,01,14.20
2016,07,09,04,02,14.30
2016,07,09,04,03,14.30
2016,07,09,04,04,14.30
2016,07,09,04,05,14.30
2016,07,09,04,06,14.30
2016,07,09,04,07,14.30
2016,07,09,04,08,14.40
2016,07,09,04,09,14.40
2016,07,09,04,10,14.40
2016,07,09,04,11,14.40
2016,07,09,04,12,14.40
2016,07,09,04,13,14.30
2016,07,09,04,14,14.30
2016,07,09,04,15,14.30
2016,07,09,04,16,14.20
2016,07,09,04,17,14.20
2016,07,09,04,18,14.20
2016,07,09,04,19,14.20
2016,07,09,04,20,14.20
2016,07,09,04,21,14.20
2016,07,09,04,22,14.20
2016,07,09,04,23,14.20
2016,07,09,04,24,14.20
2016,07,09,04,25,14.20
2016,07,09,04,26,14.20
2016,07,09,04,27,14.20
2016,07,09,04,28,14.20
2016,07,09,04,29,14.20
2016,07,09,04,30,14.20
2016,07,09,04,31,14.20
2016,07,09,04,32,14.20
2016,07,09,04,33,14.20
2016,07,09,04,34,14.20
2016,07,09,04,35,14.20
2016,07,09,04,36,14.20
2016,07,09,04,37,14.20
2016,07,09,04,38,14.20
2016,07,09,04,39,14.20
2016,07,09,04,40,14.20
2016,07,09,04,41,14.20
2016,07,09,04,42,14.20
2016,07,09,04,43,14.20
2016,07,09,04,44,14.20
2016,07,09,04,45,14.10
2016,07,09,04,46,14.10
2016,07,09,04,47,14.10
2016,07,09,04,48,14.10
2016,07,09,04,49,14.10
2016,07,09,04,50,14.10
2016,07,09,04,51,14.10
2016,07,09,04,52,14.10
2016,07,09,04,53,14.10
2016,07,09,04,54,14.20
2016,07,09,04,55,14.20
2016,07,09,04,56,14.20
2016,07,09,04,57,14.20
2016,07,09,04,58,14.20
2016,07,09,04,59,14.20
2016,07,09,05,00,14.20
2016,07,09,05,01,14.10
2016,07,09,05,02,14.10
2016,07,09,05,03,14.10
2016,07,09,05,04,14.10
2016,07,09,05,05,14.10
2016,07,09,05,06,14.00
2016,07,09,05,07,14.00
2016,07,09,05,08,13.90
2016,07,09,05,09,13.90
2016,07,09,05,10,13.90
2016,07,09,05,11,13.80
2016,07,09,05,12,13.80
2016,07,09,05,13,13.80
2016,07,09,05,14,13.80
2016,07,09,05,15,13.70
2016,07,09,05,16,13.70
2016,07,09,05,17,13.70
2016,07,09,05,18,13.70
2016,07,09,05,19,13.60
2016,07,09,05,20,13.60
2016,07,09,05,21,13.60
2016,07,09,05,22,13.60
2016,07,09,05,23,13.60
2016,07,09,05,24,13.60
2016,07,09,05,25,13.60
2016,07,09,05,26,13.60
2016,07,09,05,27,13.60
2016,07,09,05,28,13.60
2016,07,09,05,29,13.60
2016,07,09,05,30,13.60
2016,07,09,05,31,13.60
2016,07,09,05,32,13.50
2016,07,09,05,33,13.50
2016,07,09,05,34,13.50
2016,07,09,05,35,13.50
2016,07,09,05,36,13.50
2016,07,09,05,37,13.50
2016,07,09,05,38,13.40
2016,07,09,05,39,13.40
2016,07,09,05,40,13.40
2016,07,09,05,41,13.40
2016,07,09,05,42,13.30
2016,07,09,05,43,13.30
2016,07,09,05,44,13.30
2016,07,09,05,45,13.30
2016,07,09,05,46,13.30
2016,07,09,05,47,13.30
2016,07,09,05,48,13.30
2016,07,09,05,49,13.20
2016,07,09,05,50,13.20
2016,07,09,05,51,13.20
2016,07,09,05,52,13.10
2016,07,09,05,53,13.10
2016,07,09,05,54,13.10
2016,07,09,05,55,13.10
2016,07,09,05,56,13.10
2016,07,09,05,57,13.10
2016,07,09,05,58,13.10
2016,07,09,05,59,13.10
2016,07,09,06,00,13.10
2016,07,09,06,01,13.10
2016,07,09,06,02,13.10
2016,07,09,06,03,13.10
2016,07,09,06,04,13.10
2016,07,09,06,05,13.10
2016,07,09,06,06,13.10
2016,07,09,06,07,13.10
2016,07,09,06,08,13.10
2016,07,09,06,09,13.10
2016,07,09,06,10,13.10
2016,07,09,06,11,13.10
2016,07,09,06,12,13.10
2016,07,09,06,13,13.10
2016,07,09,06,14,13.20
2016,07,09,06,15,13.20
2016,07,09,06,16,13.20
2016,07,09,06,17,13.20
2016,07,09,06,18,13.20
2016,07,09,06,19,13.20
2016,07,09,06,20,13.20
2016,07,09,06,21,13.20
2016,07,09,06,22,13.20
2016,07,09,06,23,13.20
2016,07,09,06,24,13.20
2016,07,09,06,25,13.20
2016,07,09,06,26,13.20
2016,07,09,06,27,13.30
2016,07,09,06,28,13.30
2016,07,09,06,29,13.30
2016,07,09,06,30,13.30
2016,07,09,06,31,13.30
2016,07,09,06,32,13.30
2016,07,09,06,33,13.30
2016,07,09,06,34,13.30
2016,07,09,06,35,13.30
2016,07,09,06,36,13.30
2016,07,09,06,37,13.30
2016,07,09,06,38,13.30
2016,07,09,06,39,13.30
2016,07,09,06,40,13.30
2016,07,09,06,41,13.30
2016,07,09,06,42,13.40
2016,07,09,06,43,13.40
2016,07,09,06,44,13.40
2016,07,09,06,45,13.40
2016,07,09,06,46,13.40
2016,07,09,06,47,13.30
2016,07,09,06,48,13.30
2016,07,09,06,49,13.30
2016,07,09,06,50,13.30
2016,07,09,06,51,13.30
2016,07,09,06,52,13.30
2016,07,09,06,53,13.30
2016,07,09,06,54,13.40
2016,07,09,06,55,13.40
2016,07,09,06,56,13.40
2016,07,09,06,57,13.50
2016,07,09,06,58,13.50
2016,07,09,06,59,13.50
2016,07,09,07,00,13.60
2016,07,09,07,01,13.60
2016,07,09,07,02,13.70
2016,07,09,07,03,13.70
2016,07,09,07,04,13.70
2016,07,09,07,05,13.70
2016,07,09,07,06,13.70
2016,07,09,07,07,13.80
2016,07,09,07,08,13.80
2016,07,09,07,09,13.90
2016,07,09,07,10,13.90
2016,07,09,07,11,13.90
2016,07,09,07,12,13.90
2016,07,09,07,13,14.00
2016,07,09,07,14,14.00
2016,07,09,07,15,14.00
2016,07,09,07,16,14.10
2016,07,09,07,17,14.10
2016,07,09,07,18,14.20
2016,07,09,07,19,14.20
2016,07,09,07,20,14.20
2016,07,09,07,21,14.20
2016,07,09,07,22,14.20
2016,07,09,07,23,14.20
2016,07,09,07,24,14.20
2016,07,09,07,25,14.20
2016,07,09,07,26,14.20
2016,07,09,07,27,14.20
2016,07,09,07,28,14.20
2016,07,09,07,29,14.20
2016,07,09,07,30,14.20
2016,07,09,07,31,14.20
2016,07,09,07,32,14.20
2016,07,09,07,33,14.30
2016,07,09,07,34,14.30
2016,07,09,07,35,14.40
2016,07,09,07,36,14.40
2016,07,09,07,37,14.40
2016,07,09,07,38,14.40
2016,07,09,07,39,14.30
2016,07,09,07,40,14.40
2016,07,09,07,41,14.40
2016,07,09,07,42,14.40
2016,07,09,07,43,14.40
2016,07,09,07,44,14.40
2016,07,09,07,45,14.40
2016,07,09,07,46,14.50
2016,07,09,07,47,14.60
2016,07,09,07,48,14.60
2016,07,09,07,49,14.70
2016,07,09,07,50,14.70
2016,07,09,07,51,14.70
2016,07,09,07,52,14.70
2016,07,09,07,53,14.70
2016,07,09,07,54,14.70
2016,07,09,07,55,14.60
2016,07,09,07,56,14.60
2016,07,09,07,57,14.60
2016,07,09,07,58,14.60
2016,07,09,07,59,14.60
2016,07,09,08,00,14.60
2016,07,09,08,01,14.70
2016,07,09,08,02,14.70
2016,07,09,08,03,14.80
2016,07,09,08,04,14.80
2016,07,09,08,05,14.80
2016,07,09,08,06,14.90
2016,07,09,08,07,14.90
2016,07,09,08,08,14.90
2016,07,09,08,09,14.90
2016,07,09,08,10,15.00
2016,07,09,08,11,15.00
2016,07,09,08,12,15.00
2016,07,09,08,13,14.90
2016,07,09,08,14,14.90
2016,07,09,08,15,14.90
2016,07,09,08,16,15.00
2016,07,09,08,17,15.00
2016,07,09,08,18,15.10
2016,07,09,08,19,15.10
2016,07,09,08,20,15.20
2016,07,09,08,21,15.20
2016,07,09,08,22,15.30
2016,07,09,08,23,15.30
2016,07,09,08,24,15.30
2016,07,09,08,25,15.30
2016,07,09,08,26,15.30
2016,07,09,08,27,15.20
2016,07,09,08,28,15.20
2016,07,09,08,29,15.20
2016,07,09,08,30,15.20
2016,07,09,08,31,15.10
2016,07,09,08,32,15.20
2016,07,09,08,33,15.20
2016,07,09,08,34,15.20
2016,07,09,08,35,15.20
2016,07,09,08,36,15.20
2016,07,09,08,37,15.20
2016,07,09,08,38,15.10
2016,07,09,08,39,15.10
2016,07,09,08,40,15.10
2016,07,09,08,41,15.10
2016,07,09,08,42,15.10
2016,07,09,08,43,15.10
2016,07,09,08,44,15.10
2016,07,09,08,45,15.20
2016,07,09,08,46,15.30
2016,07,09,08,47,15.30
2016,07,09,08,48,15.30
2016,07,09,08,49,15.50
2016,07,09,08,50,15.50
2016,07,09,08,51,15.60
2016,07,09,08,52,15.50
2016,07,09,08,53,15.50
2016,07,09,08,54,15.60
2016,07,09,08,55,15.60
2016,07,09,08,56,15.60
2016,07,09,08,57,15.60
2016,07,09,08,58,15.50
2016,07,09,08,59,15.50
2016,07,09,09,00,15.60
2016,07,09,09,01,15.70
2016,07,09,09,02,15.70
2016,07,09,09,03,15.60
2016,07,09,09,04,15.60
2016,07,09,09,05,15.60
2016,07,09,09,06,15.70
2016,07,09,09,07,15.70
2016,07,09,09,08,15.70
2016,07,09,09,09,15.80
2016,07,09,09,10,15.80
2016,07,09,09,11,15.80
2016,07,09,09,12,15.80
2016,07,09,09,13,15.80
2016,07,09,09,14,15.80
2016,07,09,09,15,15.80
2016,07,09,09,16,15.80
2016,07,09,09,17,15.80
2016,07,09,09,18,15.70
2016,07,09,09,19,15.60
2016,07,09,09,20,15.50
2016,07,09,09,21,15.50
2016,07,09,09,22,15.50
2016,07,09,09,23,15.50
2016,07,09,09,24,15.40
2016,07,09,09,25,15.40
2016,07,09,09,26,15.50
2016,07,09,09,27,15.50
2016,07,09,09,28,15.50
2016,07,09,09,29,15.40
2016,07,09,09,30,15.40
2016,07,09,09,31,15.30
2016,07,09,09,32,15.40
2016,07,09,09,33,15.40
2016,07,09,09,34,15.40
2016,07,09,09,35,15.40
2016,07,09,09,36,15.40
2016,07,09,09,37,15.40
2016,07,09,09,38,15.50
2016,07,09,09,39,15.50
2016,07,09,09,40,15.50
2016,07,09,09,41,15.60
2016,07,09,09,42,15.50
2016,07,09,09,43,15.40
2016,07,09,09,44,15.40
2016,07,09,09,45,15.40
2016,07,09,09,46,15.50
2016,07,09,09,47,15.50
2016,07,09,09,48,15.50
2016,07,09,09,49,15.60
2016,07,09,09,50,15.60
2016,07,09,09,51,15.60
2016,07,09,09,52,15.50
2016,07,09,09,53,15.40
2016,07,09,09,54,15.40
2016,07,09,09,55,15.40
2016,07,09,09,56,15.40
2016,07,09,09,57,15.40
2016,07,09,09,58,15.40
2016,07,09,09,59,15.40
2016,07,09,10,00,15.40
2016,07,09,10,01,15.50
2016,07,09,10,02,15.50
2016,07,09,10,03,15.60
2016,07,09,10,04,15.60
2016,07,09,10,05,15.50
2016,07,09,10,06,15.40
2016,07,09,10,07,15.30
2016,07,09,10,08,15.30
2016,07,09,10,09,15.30
2016,07,09,10,10,15.20
2016,07,09,10,11,15.20
2016,07,09,10,12,15.20
2016,07,09,10,13,15.20
2016,07,09,10,14,15.20
2016,07,09,10,15,15.10
2016,07,09,10,16,15.10
2016,07,09,10,17,15.00
2016,07,09,10,18,15.00
2016,07,09,10,19,15.00
2016,07,09,10,20,14.80
2016,07,09,10,21,14.70
2016,07,09,10,22,14.60
2016,07,09,10,23,14.60
2016,07,09,10,24,14.60
2016,07,09,10,25,14.50
2016,07,09,10,26,14.50
2016,07,09,10,27,14.50
2016,07,09,10,28,14.50
2016,07,09,10,29,14.50
2016,07,09,10,30,14.50
2016,07,09,10,31,14.60
2016,07,09,10,32,14.60
2016,07,09,10,33,14.60
2016,07,09,10,34,14.50
2016,07,09,10,35,14.50
2016,07,09,10,36,14.50
2016,07,09,10,37,14.50
2016,07,09,10,38,14.50
2016,07,09,10,39,14.50
2016,07,09,10,40,14.50
2016,07,09,10,41,14.50
2016,07,09,10,42,14.50
2016,07,09,10,43,14.50
2016,07,09,10,44,14.50
2016,07,09,10,45,14.50
2016,07,09,12,43,17.50
2016,07,09,12,44,17.60
2016,07,09,12,45,17.60
2016,07,09,12,46,17.50
2016,07,09,12,47,17.50
2016,07,09,12,48,17.40
2016,07,09,12,49,17.40
2016,07,09,12,50,17.40
2016,07,09,12,51,17.40
2016,07,09,12,52,17.40
2016,07,09,12,53,17.30
2016,07,09,12,54,17.30
2016,07,09,12,55,17.30
2016,07,09,12,56,17.30
2016,07,09,12,57,17.30
2016,07,09,12,58,17.30
2016,07,09,12,59,17.30
2016,07,09,13,00,17.40
2016,07,09,13,01,17.40
2016,07,09,13,02,17.40
2016,07,09,13,03,17.50
2016,07,09,13,04,17.50
2016,07,09,13,05,17.60
2016,07,09,13,06,17.70
2016,07,09,13,07,17.70
2016,07,09,13,08,17.80
2016,07,09,13,09,17.80
2016,07,09,13,10,17.80
2016,07,09,13,11,17.80
2016,07,09,13,12,17.70
2016,07,09,13,13,17.70
2016,07,09,13,14,17.70
2016,07,09,13,15,17.70
2016,07,09,13,16,17.60
2016,07,09,13,17,17.60
2016,07,09,13,18,17.70
2016,07,09,13,19,17.80
2016,07,09,13,20,17.80
2016,07,09,13,21,17.70
2016,07,09,13,22,17.70
2016,07,09,13,23,17.70
2016,07,09,13,24,17.80
2016,07,09,13,25,17.80
2016,07,09,13,26,17.80
2016,07,09,13,27,17.90
2016,07,09,13,28,17.90
2016,07,09,13,29,17.80
2016,07,09,13,30,17.70
2016,07,09,13,31,17.70
2016,07,09,13,32,17.70
2016,07,09,13,33,17.70
2016,07,09,13,34,17.80
2016,07,09,13,35,17.90
2016,07,09,13,36,17.90
2016,07,09,13,37,18.00
2016,07,09,13,38,18.10
2016,07,09,13,39,18.20
2016,07,09,13,40,18.30
2016,07,09,13,41,18.40
2016,07,09,13,42,18.40
2016,07,09,13,43,18.40
2016,07,09,13,44,18.40
2016,07,09,13,45,18.30
2016,07,09,13,46,18.20
2016,07,09,13,47,18.20
2016,07,09,13,48,18.20
2016,07,09,13,49,18.30
2016,07,09,13,50,18.40
2016,07,09,13,51,18.40
2016,07,09,13,52,18.40
2016,07,09,13,53,18.50
2016,07,09,13,54,18.50
2016,07,09,13,55,18.50
2016,07,09,13,56,18.50
2016,07,09,13,57,18.40
2016,07,09,13,58,18.40
2016,07,09,13,59,18.40
2016,07,09,14,00,18.50
2016,07,09,14,01,18.60
2016,07,09,14,02,18.60
2016,07,09,14,03,18.70
2016,07,09,14,04,18.80
2016,07,09,14,05,18.90
2016,07,09,14,06,18.90
2016,07,09,14,07,19.00
2016,07,09,14,08,19.10
2016,07,09,14,09,19.10
2016,07,09,14,10,19.10
2016,07,09,14,11,19.10
2016,07,09,14,12,19.20
2016,07,09,14,13,19.30
2016,07,09,14,14,19.30
2016,07,09,14,15,19.30
2016,07,09,14,16,19.30
2016,07,09,14,17,19.40
2016,07,09,14,18,19.40
2016,07,09,14,19,19.40
2016,07,09,14,20,19.50
2016,07,09,14,21,19.40
2016,07,09,14,22,19.30
2016,07,09,14,23,19.20
2016,07,09,14,24,19.10
2016,07,09,14,25,19.10
2016,07,09,14,26,19.00
2016,07,09,14,27,19.00
2016,07,09,14,28,19.10
2016,07,09,14,29,19.10
2016,07,09,14,30,19.10
2016,07,09,14,31,19.10
2016,07,09,14,32,19.10
2016,07,09,14,33,19.10
2016,07,09,14,34,19.10
2016,07,09,14,35,19.10
2016,07,09,14,36,19.10
2016,07,09,14,37,19.10
2016,07,09,14,38,19.20
2016,07,09,14,39,19.20
2016,07,09,14,40,19.20
2016,07,09,14,41,19.20
2016,07,09,14,42,19.20
2016,07,09,14,43,19.20
2016,07,09,14,44,19.20
2016,07,09,14,45,19.10
2016,07,09,14,46,19.10
2016,07,09,14,47,19.10
2016,07,09,14,48,19.10
2016,07,09,14,49,19.10
2016,07,09,14,50,19.10
2016,07,09,14,51,19.10
2016,07,09,14,52,19.10
2016,07,09,14,53,19.10
2016,07,09,14,54,19.10
2016,07,09,14,55,19.10
2016,07,09,14,56,19.20
2016,07,09,14,57,19.20
2016,07,09,14,58,19.20
2016,07,09,14,59,19.20
2016,07,09,15,00,19.20
2016,07,09,15,01,19.30
2016,07,09,15,02,19.30
2016,07,09,15,03,19.30
2016,07,09,15,04,19.30
2016,07,09,15,05,19.30
2016,07,09,15,06,19.30
2016,07,09,15,07,19.30
2016,07,09,15,08,19.30
2016,07,09,15,09,19.30
2016,07,09,15,10,19.30
2016,07,09,15,11,19.30
2016,07,09,15,12,19.40
2016,07,09,15,13,19.50
2016,07,09,15,14,19.50
2016,07,09,15,15,19.50
2016,07,09,15,16,19.50
2016,07,09,15,17,19.50
2016,07,09,15,18,19.60
2016,07,09,15,19,19.60
2016,07,09,15,20,19.60
2016,07,09,15,21,19.60
2016,07,09,15,22,19.70
2016,07,09,15,23,19.70
2016,07,09,15,24,19.70
2016,07,09,15,25,19.70
2016,07,09,15,26,19.70
2016,07,09,15,27,19.50
2016,07,09,15,28,19.10
2016,07,09,15,29,18.70
2016,07,09,15,30,18.30
2016,07,09,15,31,17.90
2016,07,09,15,32,17.60
2016,07,09,15,33,17.30
2016,07,09,15,34,17.00
2016,07,09,15,35,16.90
2016,07,09,15,36,16.70
2016,07,09,15,37,16.50
2016,07,09,15,38,16.30
2016,07,09,15,39,16.20
2016,07,09,15,40,16.00
2016,07,09,15,41,15.90
2016,07,09,15,42,15.80
2016,07,09,15,43,15.70
2016,07,09,15,44,15.70
2016,07,09,15,45,15.70
2016,07,09,15,46,15.70
2016,07,09,15,47,15.70
2016,07,09,15,48,15.70
2016,07,09,15,49,15.70
2016,07,09,15,50,15.70
2016,07,09,15,51,15.80
2016,07,09,15,52,15.70
2016,07,09,15,53,15.70
2016,07,09,15,54,15.70
2016,07,09,15,55,15.70
2016,07,09,15,56,15.70
2016,07,09,15,57,15.70
2016,07,09,15,58,15.80
2016,07,09,15,59,15.80
2016,07,09,16,00,15.80
2016,07,09,16,01,15.80
2016,07,09,16,02,15.80
2016,07,09,16,03,15.80
2016,07,09,16,04,15.80
2016,07,09,16,05,15.80
2016,07,09,16,06,15.80
2016,07,09,16,07,15.70
2016,07,09,16,08,15.70
2016,07,09,16,09,15.70
2016,07,09,16,10,15.80
2016,07,09,16,11,15.80
2016,07,09,16,12,15.80
2016,07,09,16,13,15.70
2016,07,09,16,14,15.70
2016,07,09,16,15,15.60
2016,07,09,16,16,15.60
2016,07,09,16,17,15.60
2016,07,09,16,18,15.60
2016,07,09,16,19,15.60
2016,07,09,16,20,15.60
2016,07,09,16,21,15.60
2016,07,09,16,22,15.60
2016,07,09,16,23,15.50
2016,07,09,16,24,15.50
2016,07,09,16,25,15.50
2016,07,09,16,26,15.40
2016,07,09,16,27,15.50
2016,07,09,16,28,15.50
2016,07,09,16,29,15.50
2016,07,09,16,30,15.50
2016,07,09,16,31,15.50
2016,07,09,16,32,15.50
2016,07,09,16,33,15.50
2016,07,09,16,34,15.60
2016,07,09,16,35,15.60
2016,07,09,16,36,15.60
2016,07,09,16,37,15.60
2016,07,09,16,38,15.60
2016,07,09,16,39,15.60
2016,07,09,16,40,15.70
2016,07,09,16,41,15.70
2016,07,09,16,42,15.70
2016,07,09,16,43,15.80
2016,07,09,16,44,15.80
2016,07,09,16,45,15.80
2016,07,09,16,46,15.80
2016,07,09,16,47,15.80
2016,07,09,16,48,15.80
2016,07,09,16,49,15.80
2016,07,09,16,50,15.80
2016,07,09,16,51,15.80
2016,07,09,16,52,15.80
2016,07,09,16,53,15.90
2016,07,09,16,54,15.90
2016,07,09,16,55,15.90
2016,07,09,16,56,15.90
2016,07,09,16,57,15.80
2016,07,09,16,58,15.80
2016,07,09,16,59,15.90
2016,07,09,17,00,15.90
2016,07,09,17,01,15.90
2016,07,09,17,02,15.90
2016,07,09,17,03,16.00
2016,07,09,17,04,16.10
2016,07,09,17,05,16.10
2016,07,09,17,06,16.30
2016,07,09,17,07,16.40
2016,07,09,17,08,16.40
2016,07,09,17,09,16.40
2016,07,09,17,10,16.30
2016,07,09,17,11,16.30
2016,07,09,17,12,16.20
2016,07,09,17,13,16.30
2016,07,09,17,14,16.30
2016,07,09,17,15,16.40
2016,07,09,17,16,16.40
2016,07,09,17,17,16.30
2016,07,09,17,18,16.30
2016,07,09,17,19,16.40
2016,07,09,17,20,16.40
2016,07,09,17,21,16.40
2016,07,09,17,22,16.40
2016,07,09,17,23,16.40
2016,07,09,17,24,16.40
2016,07,09,17,25,16.40
2016,07,09,17,26,16.40
2016,07,09,17,27,16.40
2016,07,09,17,28,16.40
2016,07,09,17,29,16.40
2016,07,09,17,30,16.40
2016,07,09,17,31,16.40
2016,07,09,17,32,16.40
2016,07,09,17,33,16.30
2016,07,09,17,34,16.30
2016,07,09,17,35,16.30
2016,07,09,17,36,16.40
2016,07,09,17,37,16.40
2016,07,09,17,38,16.40
2016,07,09,17,39,16.40
2016,07,09,17,40,16.40
2016,07,09,17,41,16.40
2016,07,09,17,42,16.50
2016,07,09,17,43,16.60
2016,07,09,17,44,16.60
2016,07,09,17,45,16.60
2016,07,09,17,46,16.70
2016,07,09,17,47,16.70
2016,07,09,17,48,16.70
2016,07,09,17,49,16.80
2016,07,09,17,50,16.80
2016,07,09,17,51,16.80
2016,07,09,17,52,16.90
2016,07,09,17,53,16.90
2016,07,09,17,54,17.00
2016,07,09,17,55,17.00
2016,07,09,17,56,17.10
2016,07,09,17,57,17.20
2016,07,09,17,58,17.30
2016,07,09,17,59,17.30
2016,07,09,18,00,17.50
2016,07,09,18,01,17.50
2016,07,09,18,02,17.60
2016,07,09,18,03,17.70
2016,07,09,18,04,17.70
2016,07,09,18,05,17.70
2016,07,09,18,06,17.80
2016,07,09,18,07,17.90
2016,07,09,18,08,17.90
2016,07,09,18,09,18.00
2016,07,09,18,10,18.10
2016,07,09,18,11,18.10
2016,07,09,18,12,18.10
2016,07,09,18,13,18.10
2016,07,09,18,14,18.10
2016,07,09,18,15,18.10
2016,07,09,18,16,18.10
2016,07,09,18,17,18.10
2016,07,09,18,18,18.10
2016,07,09,18,19,18.10
2016,07,09,18,20,18.10
2016,07,09,18,21,18.20
2016,07,09,18,22,18.20
2016,07,09,18,23,18.20
2016,07,09,18,24,18.20
2016,07,09,18,25,18.20
2016,07,09,18,26,18.20
2016,07,09,18,27,18.20
2016,07,09,18,28,18.20
2016,07,09,18,29,18.20
2016,07,09,18,30,18.20
2016,07,09,18,31,18.20
2016,07,09,18,32,18.20
2016,07,09,18,33,18.20
2016,07,09,18,34,18.20
2016,07,09,18,35,18.10
2016,07,09,18,36,18.10
2016,07,09,18,37,18.00
2016,07,09,18,38,17.90
2016,07,09,18,39,17.90
2016,07,09,18,40,17.90
2016,07,09,18,41,17.90
2016,07,09,18,42,17.90
2016,07,09,18,43,17.90
2016,07,09,18,44,17.90
2016,07,09,18,45,17.80
2016,07,09,18,46,17.80
2016,07,09,18,47,17.80
2016,07,09,18,48,17.70
2016,07,09,18,49,17.70
2016,07,09,18,50,17.70
2016,07,09,18,51,17.60
2016,07,09,18,52,17.60
2016,07,09,18,53,17.50
2016,07,09,18,54,17.50
2016,07,09,18,55,17.50
2016,07,09,18,56,17.50
2016,07,09,18,57,17.50
2016,07,09,18,58,17.50
2016,07,09,18,59,17.50
2016,07,09,19,00,17.50
2016,07,09,19,01,17.50
2016,07,09,19,02,17.50
2016,07,09,19,03,17.50
2016,07,09,19,04,17.50
2016,07,09,19,05,17.50
2016,07,09,19,06,17.50
2016,07,09,19,07,17.50
2016,07,09,19,08,17.50
2016,07,09,19,09,17.50
2016,07,09,19,10,17.50
2016,07,09,19,11,17.50
2016,07,09,19,12,17.50
2016,07,09,19,13,17.50
2016,07,09,19,14,17.50
2016,07,09,19,15,17.50
2016,07,09,19,16,17.50